Hourly Weather Klagenfurt

Today, 2 August, Monday

Time Temperature Precipitation Wind Pressure Humidity
00:00 +13°C° 0 mm 1 mps 687 mmHg 95%
01:00 +12°C° 0 mm 1 mps 687 mmHg 95%
02:00 +12°C° 0 mm 1 mps 687 mmHg 95%
03:00 +12°C° 0 mm 1 mps 687 mmHg 94%
04:00 +12°C° 0 mm 1 mps 687 mmHg 94%
05:00 +13°C° 0 mm 1 mps 688 mmHg 93%
06:00 +13°C° 0 mm 1 mps 688 mmHg 92%
07:00 +13°C° 0 mm 0 mps 689 mmHg 90%
08:00 +13°C° 0 mm 0 mps 689 mmHg 87%
09:00 +14°C° 0 mm 0 mps 690 mmHg 84%
10:00 +14°C° 0 mm 0 mps 690 mmHg 81%
11:00 +15°C° 0 mm 0 mps 690 mmHg 78%
12:00 +16°C° 0 mm 1 mps 690 mmHg 75%
13:00 +18°C° 0 mm 1 mps 690 mmHg 72%
14:00 +19°C° 0.2 mm 1 mps 690 mmHg 72%
15:00 +19°C° 0.2 mm 1 mps 690 mmHg 71%
16:00 +20°C° 0.2 mm 1 mps 690 mmHg 70%
17:00 +17°C° 0.3 mm 0 mps 689 mmHg 77%
18:00 +15°C° 0.3 mm 0 mps 689 mmHg 83%
19:00 +14°C° 0.3 mm 0 mps 689 mmHg 90%
20:00 +14°C° 0.3 mm 0 mps 689 mmHg 91%
21:00 +13°C° 0.3 mm 0 mps 689 mmHg 92%
22:00 +13°C° 0.3 mm 1 mps 690 mmHg 93%
23:00 +13°C° 0.1 mm 1 mps 690 mmHg 93%

Tomorrow, 3 August, Tuesday

Time Temperature Precipitation Wind Pressure Humidity
00:00 +13°C° 0.1 mm 1 mps 690 mmHg 93%
01:00 +12°C° 0.1 mm 1 mps 690 mmHg 93%
02:00 +12°C° 0 mm 1 mps 690 mmHg 93%
03:00 +11°C° 0 mm 0 mps 690 mmHg 93%
04:00 +11°C° 0 mm 0 mps 690 mmHg 93%
05:00 +12°C° 0 mm 0 mps 690 mmHg 92%
06:00 +13°C° 0 mm 0 mps 690 mmHg 90%
07:00 +14°C° 0 mm 0 mps 691 mmHg 89%
08:00 +15°C° 0.2 mm 0 mps 691 mmHg 83%
09:00 +19°C° 0.2 mm 1 mps 691 mmHg 77%
10:00 +20°C° 0.2 mm 1 mps 691 mmHg 71%
11:00 +21°C° 0.7 mm 1 mps 691 mmHg 72%
12:00 +21°C° 0.7 mm 1 mps 690 mmHg 73%
13:00 +21°C° 0.7 mm 1 mps 690 mmHg 74%
14:00 +21°C° 0.6 mm 1 mps 690 mmHg 74%
15:00 +21°C° 0.6 mm 1 mps 690 mmHg 73%
16:00 +21°C° 0.6 mm 1 mps 689 mmHg 73%
17:00 +20°C° 0.3 mm 1 mps 689 mmHg 78%
18:00 +18°C° 0.3 mm 1 mps 689 mmHg 83%
19:00 +16°C° 0.3 mm 1 mps 689 mmHg 87%
20:00 +15°C° 0 mm 1 mps 689 mmHg 88%
21:00 +14°C° 0 mm 1 mps 689 mmHg 89%
22:00 +13°C° 0 mm 1 mps 689 mmHg 90%
23:00 +13°C° 0 mm 1 mps 689 mmHg 90%

Day after tomorrow, 4 August, Wednesday

Time Temperature Precipitation Wind Pressure Humidity
00:00 +14°C° 0 mm 1 mps 689 mmHg 89%
01:00 +14°C° 0 mm 1 mps 689 mmHg 88%
02:00 +13°C° 0 mm 1 mps 689 mmHg 89%
03:00 +12°C° 0 mm 0 mps 689 mmHg 90%
04:00 +12°C° 0 mm 0 mps 689 mmHg 91%
05:00 +13°C° 0 mm 0 mps 689 mmHg 89%
06:00 +14°C° 0 mm 0 mps 689 mmHg 87%
07:00 +15°C° 0 mm 0 mps 690 mmHg 84%
08:00 +16°C° 0.1 mm 0 mps 690 mmHg 78%
09:00 +20°C° 0.1 mm 1 mps 690 mmHg 72%
10:00 +21°C° 0.1 mm 1 mps 690 mmHg 65%
11:00 +22°C° 0.3 mm 1 mps 690 mmHg 64%
12:00 +23°C° 0.3 mm 1 mps 690 mmHg 63%
13:00 +23°C° 0.3 mm 1 mps 690 mmHg 61%
14:00 +23°C° 0.2 mm 2 mps 689 mmHg 60%
15:00 +23°C° 0.2 mm 2 mps 689 mmHg 58%
16:00 +23°C° 0.2 mm 2 mps 689 mmHg 56%
17:00 +21°C° 0 mm 2 mps 688 mmHg 63%
18:00 +20°C° 0 mm 1 mps 688 mmHg 70%
19:00 +19°C° 0 mm 1 mps 688 mmHg 77%
20:00 +18°C° 0 mm 1 mps 688 mmHg 77%
21:00 +16°C° 0 mm 1 mps 687 mmHg 77%
22:00 +16°C° 0 mm 1 mps 687 mmHg 77%
23:00 +16°C° 0 mm 1 mps 687 mmHg 76%

5 August, Thursday

Time Temperature Precipitation Wind Pressure Humidity
00:00 +16°C° 0 mm 1 mps 687 mmHg 76%
01:00 +16°C° 0 mm 1 mps 686 mmHg 76%
02:00 +16°C° 0.4 mm 1 mps 686 mmHg 80%
03:00 +15°C° 0.4 mm 1 mps 686 mmHg 85%
04:00 +15°C° 0.4 mm 1 mps 686 mmHg 89%
05:00 +15°C° 0.2 mm 1 mps 686 mmHg 89%
06:00 +16°C° 0.2 mm 1 mps 686 mmHg 89%
07:00 +16°C° 0.2 mm 1 mps 686 mmHg 89%
08:00 +16°C° 0.3 mm 1 mps 686 mmHg 87%
09:00 +16°C° 0.3 mm 1 mps 686 mmHg 86%
10:00 +16°C° 0.3 mm 1 mps 686 mmHg 84%
11:00 +18°C° 0.3 mm 1 mps 687 mmHg 77%
12:00 +19°C° 0.3 mm 1 mps 687 mmHg 70%
13:00 +20°C° 0.3 mm 1 mps 687 mmHg 62%
14:00 +21°C° 0.3 mm 1 mps 687 mmHg 60%
15:00 +21°C° 0.3 mm 1 mps 687 mmHg 58%
16:00 +22°C° 0.3 mm 1 mps 687 mmHg 56%
17:00 +20°C° 0.1 mm 1 mps 686 mmHg 65%
18:00 +19°C° 0.1 mm 1 mps 686 mmHg 74%
19:00 +16°C° 0.1 mm 1 mps 686 mmHg 84%
20:00 +15°C° 0.1 mm 1 mps 686 mmHg 86%
21:00 +15°C° 0.1 mm 1 mps 686 mmHg 89%
22:00 +14°C° 0.1 mm 1 mps 686 mmHg 92%
23:00 +13°C° 0.1 mm 1 mps 686 mmHg 93%

6 August, Friday

Time Temperature Precipitation Wind Pressure Humidity
00:00 +12°C° 0.1 mm 0 mps 686 mmHg 94%
01:00 +11°C° 0.1 mm 0 mps 686 mmHg 95%
02:00 +11°C° 0 mm 0 mps 686 mmHg 95%
03:00 +11°C° 0 mm 0 mps 686 mmHg 95%
04:00 +11°C° 0 mm 0 mps 686 mmHg 95%
05:00 +12°C° 0 mm 0 mps 687 mmHg 92%
06:00 +13°C° 0 mm 0 mps 687 mmHg 89%
07:00 +14°C° 0 mm 0 mps 687 mmHg 85%
08:00 +16°C° 0 mm 0 mps 687 mmHg 78%
09:00 +19°C° 0 mm 1 mps 688 mmHg 71%
10:00 +21°C° 0 mm 1 mps 688 mmHg 64%
11:00 +22°C° 0.4 mm 1 mps 688 mmHg 64%
12:00 +22°C° 0.4 mm 1 mps 688 mmHg 63%
13:00 +23°C° 0.4 mm 1 mps 688 mmHg 62%
14:00 +23°C° 0.3 mm 1 mps 688 mmHg 61%
15:00 +23°C° 0.3 mm 1 mps 688 mmHg 59%
16:00 +24°C° 0.3 mm 1 mps 688 mmHg 58%
17:00 +22°C° 0 mm 1 mps 687 mmHg 66%
18:00 +21°C° 0 mm 1 mps 687 mmHg 73%
19:00 +19°C° 0 mm 1 mps 687 mmHg 81%
20:00 +18°C° 0 mm 1 mps 687 mmHg 83%
21:00 +16°C° 0 mm 1 mps 687 mmHg 86%
22:00 +15°C° 0 mm 1 mps 688 mmHg 88%
23:00 +15°C° 0 mm 1 mps 688 mmHg 89%

7 August, Saturday

Time Temperature Precipitation Wind Pressure Humidity
00:00 +14°C° 0 mm 1 mps 688 mmHg 89%
01:00 +14°C° 0 mm 1 mps 688 mmHg 90%
02:00 +14°C° 0 mm 1 mps 688 mmHg 91%
03:00 +14°C° 0 mm 1 mps 688 mmHg 91%
04:00 +13°C° 0 mm 1 mps 688 mmHg 92%
05:00 +14°C° 0 mm 0 mps 688 mmHg 88%
06:00 +15°C° 0 mm 0 mps 688 mmHg 85%
07:00 +16°C° 0 mm 0 mps 689 mmHg 81%
08:00 +18°C° 0 mm 0 mps 689 mmHg 73%
09:00 +22°C° 0 mm 1 mps 689 mmHg 66%
10:00 +24°C° 0 mm 1 mps 689 mmHg 58%
11:00 +25°C° 0 mm 2 mps 689 mmHg 54%
12:00 +26°C° 0 mm 2 mps 688 mmHg 51%
13:00 +27°C° 0 mm 3 mps 688 mmHg 47%
14:00 +26°C° 0 mm 3 mps 688 mmHg 47%
15:00 +26°C° 0 mm 3 mps 688 mmHg 46%
16:00 +26°C° 0 mm 3 mps 687 mmHg 46%
17:00 +24°C° 0 mm 3 mps 687 mmHg 57%
18:00 +21°C° 0 mm 2 mps 687 mmHg 67%
19:00 +19°C° 0 mm 2 mps 686 mmHg 78%
20:00 +18°C° 0 mm 2 mps 687 mmHg 81%
21:00 +17°C° 0 mm 2 mps 687 mmHg 84%
22:00 +16°C° 0 mm 1 mps 688 mmHg 87%
23:00 +16°C° 0 mm 1 mps 688 mmHg 87%
Show more